Showing default

OPS 4947 (TRANSIT 17), 2965

Orbit data source: Space-Track

OPS 4947 (TRANSIT 17), 2965 is a payload satellite owned by USN NAVAIR (US) in LEO that was launched on Mon, 25 Sep 1967 UTC via an SCOUT A launch vehicle from the Air Force Western Test Range (AFWTR). Payload-class satellites include a variety of spacecraft equipped with specific instruments for various scientific and technological missions. These include communications satellites like Starlink; space stations such as the ISS; scientific satellites like the Hubble; Earth observation satellites from companies like Planet Labs, Umbra, and HawkEye 360; GPS; miniature CubeSats for education and research; and military/defense satellites.

Loading next visibility...
Identifier
2965, 1967-092A
Orbit
LEO
Country
Flag of USUS
Related business
Manufacturer
APL
Mission
Spacecraft
Bus & Motor
TRANSIT 5, Unknown motor
Mass
~50 kg wet, ~50 kg dry
Launch date (UTC)
1967-09-25 (58 years ago)
Launch vehicle
SCOUT A
Launch site
Air Force Western Test Range (AFWTR)
Object type
Payload
Rocket body
Debris
Shape & HBR
Unknown
Radar Cross Section
Large (>1 m²)

Expand to show TLE details & history
Last TLE update: 15 hours ago

TLE from 15 hours ago
0 OPS 4947 (TRANSIT 17)
1  2965U 67092A   25312.67489266  .00000205  00000-0  28634-3 0  9990
2  2965  89.2531  27.0262 0046541 336.9566 175.9069 13.53441057866368
Epoch: 2025-11-08T16:11Z
TLE epoch observation values (Epoch: 2025-11-08T16:11:50.725Z)
Latitude
27.13139°
Longitude
-84.41705°
Altitude
1,097.534 km
Speed
7.289 km/s
True Right ascension
13h 46m 34s
True Declination
26° 59' 54"
Sunlit
Object was in daylight at epoch
Visualization orbit readout
Latitude
Unknown
Longitude
Unknown
Altitude
Unknown
Speed
Unknown
Apparent Right ascension
Unknown
Apparent Declination
Unknown
Sunlit
N/A
Visualization observer readout
Local Sidereal Time
03:01:37
Azimuth
Unknown
Elevation
Unknown
Doppler factor
Unknown
Orbital elements
Apogee altitude
1,091.274 km
Perigee altitude
1,022.069 km
Semi-major axis
7,434.808 km
Eccentricity
0.00465
Inclination
89.2531°
RAAN
27.0262°
Arg. of periapsis
336.9566°
True anomaly
175.94475°
Mean anomaly
175.9069°
Eccentric anomaly
175.92585°
Mean motion
3.38562 °/min
Orbital period
106.33 mins
BSTAR
0.00028634
Loading maneuver chart data...
Computing Atmospheric mass density...
Loading historical data...
Loading historical data...
Loading historical data...
Loading historical data...
Loading historical data...
Loading historical data...
Loading historical data...

Documentation

Showing up to 5 results
|